Weather History for Summerland, BC

Change the Weather History Date:

Thursday, February 14, 2013

  Actual Average Record
Temperature  
Mean Temperature 38 °F -  
Max Temperature 46 °F - - ()
Min Temperature 29 °F - - ()
Degree Days  
Heating Degree Days 28    
Moisture  
Dew Point 28 °F    
Average Humidity 74    
Maximum Humidity 88    
Minimum Humidity 52    
Precipitation  
Precipitation 0.00 in - - ()
Sea Level Pressure  
Sea Level Pressure 30.51 in    
Wind  
Wind Speed 2 mph ()    
Max Wind Speed 5 mph    
Max Gust Speed -    
T = Trace of Precipitation, MM = Missing Value Source: Averaged Metar Reports

Daily Weather History Graph

Daily Weather History Graph

Search for Another Location

Airport:

Trip Planner

Search our weather history database for the weather conditions in past years. The results will help you decide how hot, cold, wet, or windy it might be!

Date:

Astronomy

Feb. 14, 2013 Rise Set
Actual Time 7:09 AM PST 5:16 PM PST
Civil Twilight 6:36 AM PST 5:50 PM PST
Nautical Twilight 5:58 AM PST 6:27 PM PST
Astronomical Twilight 5:21 AM PST 7:04 PM PST
Moon 8:42 AM PST (2/14) 10:59 PM PST (2/14)
Length of Visible Light 11h 13m
Length of Day
10h 07m
Waxing Crescent, 22% of the Moon is Illuminated
Feb 14
Waxing Crescent
Feb 17
First Quarter
Feb 25
Full
Mar 4
Last Quarter
Mar 11
New

Hourly Weather History & Observations

Time (PST) Temp. Windchill Dew Point Humidity Pressure Visibility Wind Dir Wind Speed Gust Speed Precip Events Conditions
12:00 AM 30.9 °F 26.2 °F 22.8 °F 72% 30.42 in - West 4.6 mph - N/A   Unknown
1:00 AM 29.7 °F 26.1 °F 22.1 °F 73% 30.43 in - West 3.5 mph - N/A   Unknown
2:00 AM 29.5 °F - 22.3 °F 75% 30.43 in - West 2.3 mph - N/A   Unknown
3:00 AM 30.9 °F - 23.9 °F 75% 30.43 in - WSW 2.3 mph - N/A   Unknown
4:00 AM 32 °F - 23 °F 59% 30.44 in - WNW 3.5 mph - -  
4:00 AM 31.8 °F 28.5 °F 23.2 °F 70% 30.44 in - WNW 3.5 mph - N/A   Unknown
5:00 AM 31.3 °F - 26.2 °F 82% 30.46 in - NW 2.3 mph - N/A   Unknown
6:00 AM 31.8 °F 28.5 °F 25.0 °F 76% 30.48 in - West 3.5 mph - N/A   Unknown
7:00 AM 31.5 °F - 26.4 °F 82% 30.50 in - NNW 2.3 mph - N/A   Unknown
8:00 AM 33.4 °F - 28.8 °F 83% 30.51 in - WNW 1.2 mph - N/A   Unknown
9:00 AM 34.2 °F - 30.6 °F 87% 30.53 in - ESE 2.3 mph - N/A   Unknown
10:00 AM 36 °F - 31 °F 76% 30.54 in - Calm Calm - -  
10:00 AM 36.5 °F - 31.3 °F 81% 30.54 in - Calm Calm - N/A   Unknown
11:00 AM 38.7 °F - 31.3 °F 75% 30.54 in - ESE 1.2 mph - N/A   Unknown
12:00 PM 41.2 °F - 31.5 °F 68% 30.52 in - ESE 2.3 mph - N/A   Unknown
1:00 PM 44.8 °F - 31.6 °F 60% 30.51 in - ESE 2.3 mph - N/A   Unknown
2:00 PM 42.8 °F - 31.3 °F 64% 30.51 in - SE 2.3 mph - N/A   Unknown
3:00 PM 46.4 °F - 31.6 °F 56% 30.51 in - Calm Calm - N/A   Unknown
4:00 PM 43 °F - 31 °F 52% 30.52 in - NE 2.3 mph - -  
4:00 PM 42.8 °F - 31.3 °F 64% 30.52 in - NE 2.3 mph - N/A   Unknown
5:00 PM 39.6 °F - 30.9 °F 71% 30.52 in - Calm Calm - N/A   Unknown
6:00 PM 37.4 °F - 30.7 °F 77% 30.53 in - Calm Calm - N/A   Unknown
7:00 PM 36.5 °F - 30.4 °F 78% 30.55 in - West 2.3 mph - N/A   Unknown
8:00 PM 36.5 °F 33.9 °F 30.2 °F 78% 30.55 in - NW 3.5 mph - N/A   Unknown
9:00 PM 35.8 °F - 29.8 °F 79% 30.56 in - West 2.3 mph - N/A   Unknown
10:00 PM 34 °F - 29 °F 75% 30.57 in - West 3.5 mph - -  
10:00 PM 33.6 °F 30.6 °F 29.1 °F 84% 30.57 in - West 3.5 mph - N/A   Unknown
11:00 PM 31.1 °F 27.7 °F 28.0 °F 88% 30.58 in - West 3.5 mph - N/A   Unknown